Location: Tabor
(49.4170°N, 14.6670°E)
Time: 11:10:25
(UTC+02:00)

ISS - Pass Details

Date: 23 May 2021
Orbit: 417 x 422 km, 51.6° (Epoch: 13 June)

Event Time Altitude Azimuth Distance (km) Brightness Sun altitude
Rises 00:34:20 0° 289° (WNW) 2,369 0.4 -19.8°
Reaches altitude 10° 00:36:29 10° 282° (WNW) 1,503 -0.7 -19.8°
Enters shadow 00:38:20 27° 264° (W) 843 -2.3 -19.9°
